period_start,C,m1,H,J0,J1,J2,J3,J4,J5,JA,JB,JC,JD,JJ,JK,JN,#
2015-02-10 00:04:53,0.17,0.98,0.00,19.73,25.35,28.23,4.94,27.52,1024.42,2039.99,3043.57,3045.36,3297.95,349.91,354.17,6.67,0000 0000 0000 0000 000000
2015-02-10 00:09:54,0.17,0.98,0.00,19.67,25.32,28.02,4.82,27.18,1024.43,2040.00,3041.54,3043.86,3296.54,350.17,354.41,6.69,0000 0000 0000 0000 000000
2015-02-10 00:14:55,0.17,0.99,0.00,19.71,25.32,28.07,4.97,27.47,1024.40,2040.01,3039.57,3042.50,3294.91,350.34,354.62,6.72,0000 0000 0000 0000 000000
2015-02-10 00:19:57,0.17,0.99,0.00,19.81,25.30,28.14,4.96,27.62,1024.43,2040.02,3037.51,3041.01,3293.39,350.20,354.25,6.75,0000 0000 0000 0000 000000
2015-02-10 00:24:59,0.19,1.00,0.00,19.81,25.30,28.18,4.94,27.41,1024.43,2040.06,3035.51,3039.59,3291.72,350.37,354.56,6.78,0000 0000 0000 0000 000000
2015-02-10 00:30:00,0.17,1.00,0.00,19.87,25.29,28.26,4.90,27.39,1024.41,2040.08,3033.42,3037.96,3290.17,349.38,353.47,6.81,0000 0000 0000 0000 000000
2015-02-10 00:35:01,0.19,1.01,0.00,19.87,25.28,28.28,5.00,27.52,1024.49,2040.10,3031.49,3036.51,3288.54,350.21,354.34,6.84,0000 0000 0000 0000 000000
2015-02-10 00:40:02,0.17,1.01,0.00,19.86,25.27,28.31,4.93,27.49,1024.50,2040.08,3029.54,3034.96,3286.78,350.27,354.25,6.87,0000 0000 0000 0000 000000
2015-02-10 00:45:03,0.17,1.02,0.00,19.90,25.27,28.36,4.90,27.45,1024.42,2040.04,3027.55,3033.46,3285.00,349.84,353.75,6.90,0000 0000 0000 0000 000000
2015-02-10 00:50:05,0.16,1.03,0.00,19.89,25.27,28.32,4.93,27.41,1024.43,2040.04,3025.66,3031.98,3283.47,350.25,354.26,6.93,0000 0000 0000 0000 000000
2015-02-10 00:55:06,0.18,1.03,0.00,19.92,25.27,28.40,4.98,27.50,1024.44,2040.10,3023.87,3030.64,3281.92,350.28,354.18,6.96,0000 0000 0000 0000 000000
2015-02-10 01:00:07,0.15,1.04,0.00,19.94,25.27,28.43,4.95,27.47,1024.43,2040.06,3021.97,3029.10,3280.25,350.22,354.25,6.99,0000 0000 0000 0000 000000
2015-02-10 01:05:08,0.18,1.04,0.00,19.98,25.28,28.45,4.88,27.66,1024.31,2040.04,3020.06,3027.59,3278.53,350.05,353.77,7.02,0000 0000 0000 0000 000000
2015-02-10 01:10:09,0.18,1.05,0.00,20.02,25.29,28.47,4.84,27.80,1024.32,2040.01,3018.06,3026.02,3276.78,349.89,353.44,7.05,0000 0000 0000 0000 000000
2015-02-10 01:15:10,0.18,1.05,0.00,20.08,25.30,28.45,4.98,27.69,1024.38,2040.01,3016.13,3024.55,3275.13,350.10,353.90,7.08,0000 0000 0000 0000 000000
2015-02-10 01:20:11,0.16,1.06,0.00,20.05,25.30,28.47,4.94,27.53,1024.41,2040.01,3014.22,3023.12,3273.55,350.11,353.91,7.10,0000 0000 0000 0000 000000
2015-02-10 01:25:13,0.18,1.06,0.00,20.07,25.31,28.55,4.87,27.63,1024.39,2040.00,3012.20,3021.55,3271.82,349.94,353.83,7.13,0000 0000 0000 0000 000000
2015-02-10 01:30:14,0.18,1.07,0.00,20.07,25.32,28.59,4.98,27.63,1024.35,2040.00,3010.14,3019.94,3270.08,350.11,354.07,7.16,0000 0000 0000 0000 000000
2015-02-10 01:35:16,0.17,1.07,0.00,20.09,25.32,28.58,4.93,27.63,1024.19,2040.00,3008.11,3018.43,3268.47,350.16,353.66,7.19,0000 0000 0000 0000 000000
2015-02-10 01:40:17,0.19,1.08,0.00,20.10,25.34,28.57,4.86,27.67,1023.99,2040.00,3006.21,3016.84,3266.74,350.17,353.91,7.22,0000 0000 0000 0000 000000
2015-02-10 01:45:18,0.16,1.08,0.00,20.08,25.35,28.54,4.90,28.03,1023.50,2040.00,3004.26,3015.41,3265.13,350.08,353.38,7.25,0000 0000 0000 0000 000000
2015-02-10 01:50:19,0.19,1.09,0.00,20.11,25.36,28.58,4.99,28.20,1023.46,2040.00,3002.20,3013.75,3263.51,350.41,353.88,7.28,0000 0000 0000 0000 000000
2015-02-10 01:55:21,0.16,1.09,0.00,20.02,25.37,28.57,4.96,27.88,1023.60,2039.99,3000.21,3012.30,3261.92,350.34,353.91,7.31,0000 0000 0000 0000 000000
2015-02-10 02:00:22,0.19,1.10,0.00,19.99,25.37,28.54,5.00,28.38,1023.49,2039.99,2998.05,3010.70,3260.29,350.27,354.00,7.34,0000 0000 0000 0000 000000
2015-02-10 02:05:23,0.17,1.10,0.00,20.07,25.37,28.58,4.85,28.16,1023.52,2039.98,2996.24,3009.21,3258.65,349.34,352.90,7.37,0000 0000 0000 0000 000000
2015-02-10 02:10:24,0.19,1.11,0.00,19.97,25.37,28.58,5.00,28.06,1023.64,2039.99,2994.22,3007.75,3257.00,350.32,353.91,7.40,0000 0000 0000 0000 000000
2015-02-10 02:15:26,0.16,1.12,0.00,20.02,25.38,28.50,4.97,28.17,1023.49,2039.99,2992.28,3006.45,3255.41,350.44,353.98,7.43,0000 0000 0000 0000 000000
2015-02-10 02:20:27,0.19,1.12,0.00,20.16,25.39,28.49,4.90,28.23,1023.34,2039.99,2990.25,3004.87,3253.76,350.15,353.61,7.46,0000 0000 0000 0000 000000
2015-02-10 02:25:28,0.16,1.13,0.00,19.97,25.39,28.50,4.82,28.17,1023.44,2039.99,2988.26,3003.43,3252.09,349.78,353.25,7.49,0000 0000 0000 0000 000000
2015-02-10 02:30:29,0.18,1.13,0.00,19.89,25.39,28.50,4.92,28.15,1023.45,2039.97,2986.27,3001.89,3250.50,349.62,353.48,7.52,0000 0000 0000 0000 000000
2015-02-10 02:35:30,0.18,1.14,0.00,20.04,25.38,28.47,4.88,27.98,1023.42,2039.97,2984.33,3000.44,3248.75,349.75,353.30,7.54,0000 0000 0000 0000 000000
2015-02-10 02:40:31,0.19,1.14,0.00,19.93,25.37,28.45,4.86,28.18,1023.28,2039.97,2982.09,2998.85,3247.31,349.83,353.44,7.57,0000 0000 0000 0000 000000
2015-02-10 02:45:33,0.16,1.15,0.00,19.87,25.37,28.38,4.88,28.18,1023.36,2039.98,2980.17,2997.41,3245.66,349.45,353.20,7.60,0000 0000 0000 0000 000000
2015-02-10 02:50:34,0.18,1.15,0.00,20.02,25.37,28.42,4.85,28.17,1023.50,2039.98,2978.36,2995.93,3244.01,349.97,353.61,7.63,0000 0000 0000 0000 000000
2015-02-10 02:55:35,0.17,1.16,0.00,19.87,25.37,28.43,4.89,28.22,1023.48,2039.99,2976.51,2994.54,3242.50,350.66,354.44,7.66,0000 0000 0000 0000 000000
2015-02-10 03:00:36,0.17,1.16,0.00,19.77,25.35,28.38,4.96,28.10,1023.67,2039.98,2974.46,2993.08,3240.82,350.09,354.04,7.69,0000 0000 0000 0000 000000
2015-02-10 03:05:37,0.18,1.17,0.00,19.91,25.35,28.27,4.92,28.07,1023.74,2039.99,2972.57,2991.65,3239.33,350.40,354.23,7.72,0000 0000 0000 0000 000000
2015-02-10 03:10:39,0.18,1.17,0.00,19.79,25.34,28.33,4.93,28.31,1023.44,2039.99,2970.57,2990.12,3237.64,350.16,353.84,7.75,0000 0000 0000 0000 000000
2015-02-10 03:15:40,0.18,1.18,0.00,19.80,25.32,28.23,4.95,28.16,1023.56,2039.99,2968.62,2988.65,3236.06,350.32,354.21,7.78,0000 0000 0000 0000 000000
2015-02-10 03:20:41,0.17,1.18,0.00,19.88,25.32,28.26,4.93,28.13,1023.47,2039.99,2966.72,2987.13,3234.43,350.10,353.84,7.81,0000 0000 0000 0000 000000
2015-02-10 03:25:42,0.17,1.19,0.00,19.69,25.30,28.27,4.87,28.48,1023.44,2039.99,2964.86,2985.72,3232.98,349.99,354.03,7.84,0000 0000 0000 0000 000000
2015-02-10 03:30:44,0.16,1.19,0.00,19.83,25.29,28.14,4.90,28.13,1023.67,2039.99,2963.09,2984.41,3231.48,349.94,353.77,7.87,0000 0000 0000 0000 000000
2015-02-10 03:35:45,0.18,1.20,0.00,19.86,25.27,28.16,4.90,28.17,1023.51,2039.99,2961.14,2982.93,3229.79,350.20,353.98,7.90,0000 0000 0000 0000 000000
2015-02-10 03:40:47,0.18,1.20,0.00,19.62,25.26,28.21,4.96,28.33,1023.68,2039.99,2959.10,2981.50,3228.30,350.12,354.26,7.92,0000 0000 0000 0000 000000
2015-02-10 03:45:48,0.16,1.21,0.00,19.73,25.25,28.13,4.91,28.38,1023.70,2039.99,2957.26,2980.05,3226.69,350.22,354.05,7.95,0000 0000 0000 0000 000000
2015-02-10 03:50:49,0.18,1.21,0.00,19.81,25.22,28.02,4.88,27.85,1024.21,2040.01,2955.37,2978.69,3225.25,349.72,353.98,7.98,0000 0000 0000 0000 000000
2015-02-10 03:55:50,0.17,1.22,0.00,19.66,25.21,28.03,4.90,27.95,1024.05,2040.00,2953.39,2977.24,3223.65,350.02,354.24,8.01,0000 0000 0000 0000 000000
2015-02-10 04:00:52,0.17,1.22,0.00,19.58,25.20,28.07,4.92,28.08,1023.95,2040.04,2951.57,2975.86,3222.16,349.94,354.13,8.04,0000 0000 0000 0000 000000
2015-02-10 04:05:53,0.19,1.23,0.00,19.66,25.18,28.02,4.88,27.97,1023.99,2040.05,2949.68,2974.45,3220.66,349.52,353.73,8.07,0000 0000 0000 0000 000000
2015-02-10 04:10:54,0.16,1.24,0.00,19.65,25.17,28.05,4.84,28.04,1024.05,2040.09,2947.78,2973.04,3219.17,349.95,354.29,8.10,0000 0000 0000 0000 000000
2015-02-10 04:15:56,0.20,1.24,0.00,19.60,25.15,28.05,4.87,27.86,1023.95,2040.11,2945.86,2971.61,3217.59,349.67,353.89,8.13,0000 0000 0000 0000 000000
2015-02-10 04:20:57,0.15,1.25,0.00,19.57,25.14,28.08,4.89,28.01,1023.63,2040.15,2944.08,2970.16,3215.96,349.99,354.17,8.16,0000 0000 0000 0000 000000
2015-02-10 04:25:58,0.19,1.25,0.00,19.65,25.13,28.02,4.92,27.94,1023.47,2040.20,2942.23,2968.68,3214.43,350.33,354.21,8.19,0000 0000 0000 0000 000000
2015-02-10 04:30:59,0.19,1.26,0.00,19.60,25.12,28.08,4.87,27.99,1023.50,2040.19,2940.23,2967.28,3212.77,350.00,353.97,8.22,0000 0000 0000 0000 000000
2015-02-10 04:36:00,0.17,1.26,0.00,19.52,25.12,28.05,4.85,27.90,1023.52,2040.20,2938.22,2965.70,3211.16,349.56,353.77,8.25,0000 0000 0000 0000 000000
2015-02-10 04:41:01,0.17,1.27,0.00,19.66,25.12,27.99,4.91,27.96,1023.63,2040.23,2936.27,2964.34,3209.61,349.99,353.95,8.28,0000 0000 0000 0000 000000
2015-02-10 04:46:03,0.20,1.27,0.00,19.61,25.12,28.05,4.97,27.93,1023.63,2040.32,2934.45,2962.88,3208.09,350.42,354.44,8.31,0000 0000 0000 0000 000000
2015-02-10 04:51:04,0.16,1.28,0.00,19.55,25.10,28.05,4.80,27.82,1023.54,2040.39,2932.53,2961.49,3206.52,349.18,353.50,8.33,0000 0000 0000 0000 000000
2015-02-10 04:56:05,0.22,1.28,0.00,19.59,25.10,27.93,4.91,28.12,1023.59,2040.55,2930.60,2960.05,3204.97,350.12,354.28,8.36,0000 0000 0000 0000 000000
2015-02-10 05:01:07,0.20,1.29,0.00,19.62,25.10,27.92,4.87,28.04,1023.60,2040.81,2928.77,2958.70,3203.58,350.10,354.33,8.39,0000 0000 0000 0000 000000
2015-02-10 05:06:08,0.18,1.30,0.00,19.52,25.09,28.05,4.83,27.82,1023.75,2040.85,2926.84,2957.21,3201.96,350.26,354.63,8.42,0000 0000 0000 0000 000000
2015-02-10 05:11:09,0.19,1.30,0.00,19.55,25.07,28.03,5.02,28.02,1023.92,2040.90,2924.87,2955.79,3200.45,350.18,354.45,8.45,0000 0000 0000 0000 000000
2015-02-10 05:16:10,0.18,1.31,0.00,19.56,25.07,27.98,4.87,28.04,1023.79,2040.93,2922.81,2954.32,3198.89,349.78,354.03,8.48,0000 0000 0000 0000 000000
2015-02-10 05:21:11,0.18,1.31,0.00,19.50,25.06,28.02,4.90,27.90,1023.94,2040.95,2920.93,2952.84,3197.45,350.03,354.30,8.51,0000 0000 0000 0000 000000
2015-02-10 05:26:13,0.19,1.32,0.00,19.46,25.05,27.91,4.89,27.93,1024.30,2040.98,2918.89,2951.43,3195.82,349.50,354.02,8.54,0000 0000 0000 0000 000000
2015-02-10 05:31:14,0.18,1.32,0.00,19.49,25.04,27.87,4.89,27.87,1024.26,2040.98,2916.98,2949.93,3194.32,349.99,354.56,8.57,0000 0000 0000 0000 000000
2015-02-10 05:36:15,0.18,1.33,0.00,19.54,25.02,28.05,4.94,27.80,1024.38,2040.98,2915.00,2948.51,3192.69,349.87,354.36,8.60,0000 0000 0000 0000 000000
2015-02-10 05:41:17,0.19,1.34,0.00,19.57,25.02,27.99,4.92,27.79,1024.28,2040.97,2912.96,2946.92,3190.96,349.71,353.97,8.63,0000 0000 0000 0000 000000
2015-02-10 05:46:18,0.17,1.34,0.00,19.56,25.02,28.00,4.93,27.68,1024.25,2040.99,2911.13,2945.55,3189.49,350.05,354.54,8.66,0000 0000 0000 0000 000000
2015-02-10 05:51:19,0.17,1.35,0.00,19.55,25.00,28.05,4.89,27.68,1024.31,2040.99,2909.12,2944.16,3187.91,349.81,354.35,8.69,0000 0000 0000 0000 000000
2015-02-10 05:56:21,0.19,1.35,0.00,19.59,25.00,27.94,4.97,27.55,1024.35,2040.99,2907.12,2942.66,3186.27,350.26,354.68,8.72,0000 0000 0000 0000 000000
2015-02-10 06:01:22,0.17,1.36,0.00,19.63,25.00,27.99,4.89,27.57,1024.41,2040.99,2905.22,2941.28,3184.70,349.98,354.32,8.74,0000 0000 0000 0000 000000
2015-02-10 06:06:23,0.16,1.36,0.00,19.64,25.00,28.02,4.92,27.68,1024.43,2040.99,2903.46,2939.88,3183.37,349.47,353.73,8.77,0000 0000 0000 0000 000000
2015-02-10 06:11:25,0.17,1.37,0.00,19.67,25.00,28.10,4.78,27.57,1024.43,2040.99,2901.64,2938.57,3181.77,349.53,353.87,8.80,0000 0000 0000 0000 000000
2015-02-10 06:16:26,0.17,1.37,0.00,19.69,25.00,28.11,4.91,27.64,1024.41,2040.99,2899.73,2937.16,3180.33,350.54,354.74,8.83,0000 0000 0000 0000 000000
2015-02-10 06:21:27,0.19,1.38,0.00,19.70,25.00,27.95,4.91,27.92,1024.08,2040.99,2897.79,2935.65,3178.61,350.30,354.49,8.86,0000 0000 0000 0000 000000
2015-02-10 06:26:29,0.15,1.38,0.00,19.71,25.00,27.98,5.02,28.02,1023.97,2040.99,2895.97,2934.28,3177.09,350.34,354.17,8.89,0000 0000 0000 0000 000000
2015-02-10 06:31:30,0.19,1.39,0.00,19.69,25.00,28.10,4.98,27.88,1023.96,2040.99,2894.05,2932.83,3175.59,349.88,353.99,8.92,0000 0000 0000 0000 000000
2015-02-10 06:36:31,0.17,1.39,0.00,19.73,25.00,28.10,4.98,27.89,1023.95,2040.99,2892.26,2931.50,3174.02,350.32,354.38,8.95,0000 0000 0000 0000 000000
2015-02-10 06:41:32,0.18,1.40,0.00,19.73,25.00,28.05,4.86,27.82,1023.99,2040.99,2890.29,2929.99,3172.52,349.98,354.14,8.98,0000 0000 0000 0000 000000
2015-02-10 06:46:34,0.17,1.40,0.00,19.71,25.00,28.10,4.89,27.98,1024.04,2040.99,2888.55,2928.65,3171.00,350.26,354.28,9.01,0000 0000 0000 0000 000000
2015-02-10 06:51:35,0.17,1.41,0.00,19.67,25.00,28.13,4.92,27.80,1024.28,2040.99,2886.68,2927.32,3169.47,349.92,354.25,9.04,0000 0000 0000 0000 000000
2015-02-10 06:56:36,0.19,1.41,0.00,19.71,25.00,28.07,4.89,27.92,1024.01,2040.99,2884.87,2925.83,3167.90,349.90,354.06,9.07,0000 0000 0000 0000 000000
2015-02-10 07:01:38,0.16,1.42,0.00,19.77,25.00,28.13,4.93,27.92,1024.20,2040.99,2883.05,2924.48,3166.37,350.19,354.38,9.10,0000 0000 0000 0000 000000
2015-02-10 07:06:39,0.17,1.42,0.00,19.71,25.01,28.19,4.93,27.82,1024.43,2040.99,2881.21,2923.02,3164.79,350.51,354.75,9.13,0000 0000 0000 0000 000000
2015-02-10 07:11:40,0.17,1.43,0.00,19.66,25.02,28.14,4.94,27.85,1024.46,2040.99,2879.42,2921.65,3163.29,349.62,353.98,9.16,0000 0000 0000 0000 000000
2015-02-10 07:16:42,0.17,1.43,0.00,19.72,25.02,27.98,4.87,28.02,1024.48,2040.97,2877.53,2920.16,3161.74,349.75,354.11,9.18,0000 0000 0000 0000 000000
2015-02-10 07:21:43,0.19,1.44,0.00,19.72,25.02,28.11,4.92,27.73,1024.69,2040.99,2875.60,2918.70,3160.18,350.06,354.45,9.21,0000 0000 0000 0000 000000
2015-02-10 07:26:44,0.17,1.45,0.00,19.75,25.02,28.17,4.94,27.68,1024.86,2040.99,2873.72,2917.32,3158.71,350.32,354.73,9.24,0000 0000 0000 0000 000000
2015-02-10 07:31:46,0.18,1.45,0.00,19.78,25.02,28.20,4.97,27.73,1024.78,2040.98,2871.85,2915.82,3157.12,350.23,354.53,9.27,0000 0000 0000 0000 000000
2015-02-10 07:36:47,0.17,1.46,0.00,19.81,25.02,28.19,4.89,27.78,1024.50,2040.98,2870.02,2914.42,3155.52,350.18,354.38,9.30,0000 0000 0000 0000 000000
2015-02-10 07:41:48,0.17,1.46,0.00,19.86,25.03,28.17,4.96,28.02,1024.46,2040.98,2868.12,2912.97,3153.92,350.55,354.65,9.33,0000 0000 0000 0000 000000
2015-02-10 07:46:50,0.17,1.47,0.00,19.83,25.05,28.20,4.89,27.88,1024.36,2040.98,2866.27,2911.61,3152.47,349.24,353.36,9.36,0000 0000 0000 0000 000000
2015-02-10 07:51:51,0.18,1.47,0.00,19.82,25.05,28.24,4.93,28.18,1023.95,2040.95,2864.37,2910.02,3150.81,350.44,354.28,9.39,0000 0000 0000 0000 000000
2015-02-10 07:56:52,0.18,1.48,0.00,19.82,25.05,28.19,4.89,28.25,1023.91,2040.96,2862.58,2908.66,3149.27,349.94,354.05,9.42,0000 0000 0000 0000 000000
2015-02-10 08:01:54,0.17,1.48,0.00,19.87,25.06,28.19,4.92,28.21,1024.02,2040.94,2860.74,2907.35,3147.69,349.66,353.64,9.45,0000 0000 0000 0000 000000
2015-02-10 08:06:55,0.17,1.49,0.00,19.77,25.07,28.25,4.94,28.30,1023.93,2040.90,2858.84,2905.85,3146.19,350.71,354.82,9.48,0000 0000 0000 0000 000000
2015-02-10 08:11:57,0.18,1.49,0.00,19.83,25.07,28.23,4.86,28.39,1023.91,2040.94,2856.96,2904.47,3144.72,349.46,353.43,9.51,0000 0000 0000 0000 000000
2015-02-10 08:16:57,0.15,1.50,0.00,19.87,25.07,28.24,4.91,28.56,1023.56,2040.95,2855.17,2903.12,3143.26,350.25,353.71,9.54,0000 0000 0000 0000 000000
2015-02-10 08:21:58,0.18,1.50,0.00,19.75,25.07,28.21,4.93,28.33,1023.84,2040.84,2853.29,2901.67,3141.71,350.11,354.07,9.56,0000 0000 0000 0000 000000
2015-02-10 08:27:00,0.16,1.51,0.00,19.84,25.07,28.22,4.90,28.23,1023.95,2040.78,2851.44,2900.35,3140.27,349.58,353.49,9.59,0000 0000 0000 0000 000000
2015-02-10 08:32:01,0.17,1.51,0.00,19.76,25.07,28.24,5.00,28.26,1024.31,2040.80,2849.61,2898.92,3138.72,350.37,354.36,9.62,0000 0000 0000 0000 000000
2015-02-10 08:37:02,0.15,1.52,0.00,19.71,25.07,28.12,4.96,28.28,1024.41,2040.74,2847.85,2897.56,3137.29,350.44,354.80,9.65,0000 0000 0000 0000 000000
2015-02-10 08:42:03,0.16,1.52,0.00,19.80,25.07,28.21,4.95,28.48,1024.13,2040.64,2845.96,2896.25,3135.72,349.97,354.03,9.68,0000 0000 0000 0000 000000
2015-02-10 08:47:05,0.18,1.53,0.00,19.70,25.07,28.19,4.91,28.52,1023.93,2040.58,2844.10,2894.84,3134.53,350.20,354.34,9.71,0000 0000 0000 0000 000000
2015-02-10 08:52:06,0.20,1.53,0.00,19.74,25.07,28.13,4.87,28.57,1023.95,2040.79,2842.29,2893.50,3133.08,349.57,353.66,9.74,0000 0000 0000 0000 000000
2015-02-10 08:57:07,0.13,1.54,0.00,19.72,25.07,28.16,4.91,28.41,1023.92,2040.72,2840.60,2892.19,3131.58,349.76,353.83,9.77,0000 0000 0000 0000 000000
2015-02-10 09:02:08,0.17,1.54,0.00,19.66,25.07,28.17,4.93,28.62,1023.97,2040.59,2838.75,2890.79,3130.11,349.95,354.07,9.80,0000 0000 0000 0000 000000
2015-02-10 09:07:10,0.16,1.55,0.00,19.77,25.07,28.13,4.96,28.57,1023.98,2040.61,2837.00,2889.50,3128.68,350.18,354.26,9.83,0000 0000 0000 0000 000000
2015-02-10 09:12:11,0.13,1.55,0.00,19.62,25.06,28.18,4.96,28.45,1024.10,2040.53,2835.23,2888.21,3127.29,350.07,354.42,9.86,0000 0000 0000 0000 000000
2015-02-10 09:17:12,0.24,1.56,0.00,19.63,25.05,28.04,4.92,28.62,1023.92,2040.76,2833.39,2886.83,3125.90,349.88,354.09,9.89,0000 0000 0000 0000 000000
2015-02-10 09:22:14,0.19,1.56,0.00,19.67,25.05,28.09,4.89,28.34,1023.94,2040.89,2831.67,2885.57,3124.52,350.24,354.51,9.92,0000 0000 0000 0000 000000
2015-02-10 09:27:15,0.16,1.57,0.00,19.50,25.04,28.07,4.94,28.75,1023.93,2040.92,2829.91,2884.27,3123.09,350.37,354.71,9.95,0000 0000 0000 0000 000000
2015-02-10 09:32:16,0.17,1.58,0.00,19.63,25.02,27.99,4.91,28.63,1023.88,2040.94,2828.23,2882.94,3121.64,350.24,354.48,9.97,0000 0000 0000 0000 000000
2015-02-10 09:37:17,0.17,1.58,0.00,19.48,25.02,28.03,4.97,28.59,1023.95,2040.97,2826.47,2881.68,3120.42,350.13,354.42,10.00,0000 0000 0000 0000 000000
2015-02-10 09:42:18,0.17,1.59,0.00,19.53,25.01,27.93,4.94,28.68,1023.94,2040.98,2824.58,2880.34,3118.93,350.22,354.51,10.03,0000 0000 0000 0000 000000
2015-02-10 09:47:20,0.15,1.59,0.00,19.62,25.00,27.91,4.89,28.68,1023.83,2040.98,2822.81,2879.18,3117.54,349.89,354.10,10.06,0000 0000 0000 0000 000000
2015-02-10 09:52:21,0.14,1.59,0.00,19.44,24.98,27.88,4.89,28.55,1024.03,2040.99,2821.33,2878.03,3116.18,350.10,354.41,10.09,0000 0000 0000 0000 000000
2015-02-10 09:57:23,0.18,1.60,0.00,19.49,24.97,27.89,4.97,28.62,1024.04,2040.99,2819.52,2876.73,3114.75,350.50,354.71,10.12,0000 0000 0000 0000 000000
2015-02-10 10:02:24,0.16,1.60,0.00,19.49,24.97,27.90,4.98,28.52,1024.45,2040.99,2817.81,2875.48,3113.39,350.32,354.71,10.15,0000 0000 0000 0000 000000
2015-02-10 10:07:26,0.16,1.61,0.00,19.32,24.95,27.78,4.99,28.32,1024.68,2040.99,2816.16,2874.17,3111.95,350.49,355.45,10.18,0000 0000 0000 0000 000000
2015-02-10 10:12:27,0.16,1.61,0.00,19.45,24.94,27.78,4.90,28.30,1024.54,2040.99,2814.52,2872.87,3110.67,349.86,354.50,10.21,0000 0000 0000 0000 000000
2015-02-10 10:17:28,0.16,1.62,0.00,19.31,24.92,27.79,4.97,28.32,1024.44,2040.99,2812.78,2871.69,3109.31,350.60,355.28,10.24,0000 0000 0000 0000 000000
2015-02-10 10:22:29,0.16,1.62,0.00,19.37,24.90,27.78,4.81,28.56,1024.47,2041.00,2811.12,2870.43,3108.00,349.19,353.94,10.27,0000 0000 0000 0000 000000
2015-02-10 10:27:31,0.15,1.63,0.00,19.49,24.89,27.70,4.95,28.27,1024.44,2041.01,2809.52,2869.18,3106.63,350.16,354.69,10.30,0000 0000 0000 0000 000000
2015-02-10 10:32:32,0.17,1.63,0.00,19.29,24.87,27.70,4.86,28.37,1024.43,2041.07,2807.80,2867.91,3105.29,349.44,354.07,10.33,0000 0000 0000 0000 000000
2015-02-10 10:37:33,0.17,1.64,0.00,19.35,24.86,27.65,4.96,28.38,1024.44,2041.10,2806.12,2866.69,3103.89,349.52,354.42,10.36,0000 0000 0000 0000 000000
2015-02-10 10:42:35,0.17,1.64,0.00,19.35,24.84,27.63,4.85,28.31,1024.44,2041.12,2804.45,2865.38,3102.45,349.59,354.32,10.39,0000 0000 0000 0000 000000
2015-02-10 10:47:36,0.23,1.65,0.00,19.21,24.82,27.64,4.97,28.48,1024.42,2041.48,2802.85,2864.25,3101.14,350.34,355.28,10.41,0000 0000 0000 0000 000000
2015-02-10 10:52:37,0.13,1.66,0.00,19.36,24.80,27.64,4.87,28.49,1024.43,2041.63,2801.22,2862.95,3099.75,349.63,354.27,10.44,0000 0000 0000 0000 000000
2015-02-10 10:57:39,0.24,1.66,0.00,19.28,24.79,27.62,4.87,28.42,1024.43,2041.74,2799.53,2861.65,3098.36,349.47,354.27,10.47,0000 0000 0000 0000 000000
2015-02-10 11:02:40,0.14,1.67,0.00,19.19,24.77,27.65,4.88,28.24,1024.45,2041.80,2797.76,2860.39,3096.87,350.13,355.06,10.50,0000 0000 0000 0000 000000
2015-02-10 11:07:41,0.19,1.67,0.00,19.38,24.76,27.65,4.96,28.39,1024.42,2041.93,2796.20,2859.13,3095.57,349.99,354.59,10.53,0000 0000 0000 0000 000000
2015-02-10 11:12:42,0.16,1.68,0.00,19.34,24.75,27.59,4.89,28.52,1024.44,2041.97,2794.67,2857.93,3094.23,349.59,354.38,10.56,0000 0000 0000 0000 000000
2015-02-10 11:17:44,0.19,1.68,0.00,19.21,24.72,27.65,4.83,28.43,1024.44,2041.98,2792.84,2856.64,3092.81,349.83,354.91,10.59,0000 0000 0000 0000 000000
2015-02-10 11:22:45,0.15,1.69,0.00,19.36,24.71,27.64,4.92,28.28,1024.45,2041.98,2791.13,2855.39,3091.50,350.40,355.09,10.62,0000 0000 0000 0000 000000
2015-02-10 11:27:47,0.16,1.69,0.00,19.19,24.70,27.67,4.90,28.33,1024.51,2041.99,2789.49,2854.11,3090.15,349.70,354.65,10.65,0000 0000 0000 0000 000000
2015-02-10 11:32:48,0.19,1.70,0.00,19.31,24.69,27.64,4.94,28.53,1024.49,2041.99,2787.71,2852.79,3088.68,350.10,354.56,10.68,0000 0000 0000 0000 000000
2015-02-10 11:37:49,0.17,1.70,0.00,19.34,24.67,27.63,4.91,28.42,1024.79,2041.99,2785.91,2851.48,3087.23,349.57,354.38,10.71,0000 0000 0000 0000 000000
2015-02-10 11:42:50,0.16,1.71,0.00,19.17,24.66,27.63,4.86,28.21,1024.91,2041.99,2784.17,2850.13,3085.75,349.79,355.05,10.74,0000 0000 0000 0000 000000
2015-02-10 11:47:52,0.18,1.71,0.00,19.29,24.65,27.53,4.93,28.23,1024.98,2042.01,2782.35,2848.81,3084.37,349.84,355.09,10.77,0000 0000 0000 0000 000000
2015-02-10 11:52:53,0.18,1.72,0.00,19.21,24.63,27.59,4.92,28.04,1025.20,2042.02,2780.51,2847.50,3082.89,350.06,355.20,10.79,0000 0000 0000 0000 000000
2015-02-10 11:57:54,0.19,1.72,0.00,19.14,24.62,27.60,4.87,27.87,1025.41,2042.01,2778.52,2845.96,3081.37,349.72,355.24,10.82,0000 0000 0000 0000 000000
2015-02-10 12:02:56,0.21,1.73,0.00,19.14,24.61,27.53,4.92,27.95,1025.42,2042.04,2776.55,2844.51,3079.71,349.96,355.45,10.85,0000 0000 0000 0000 000000
2015-02-10 12:07:57,0.18,1.74,0.00,19.21,24.60,27.46,4.90,27.94,1025.41,2042.05,2774.60,2842.98,3078.06,349.84,355.23,10.88,0000 0000 0000 0000 000000
2015-02-10 12:12:58,0.21,1.74,0.00,19.19,24.60,27.57,4.88,27.82,1025.55,2042.06,2772.55,2841.48,3076.48,349.85,355.30,10.91,0000 0000 0000 0000 000000
2015-02-10 12:18:00,0.21,1.75,0.00,19.17,24.59,27.54,4.90,27.82,1025.55,2042.09,2770.49,2839.94,3074.80,350.24,355.58,10.94,0000 0000 0000 0000 000000
2015-02-10 12:23:01,0.19,1.75,0.00,19.23,24.57,27.54,4.87,27.85,1025.85,2042.08,2768.48,2838.48,3073.21,349.90,355.27,10.97,0000 0000 0000 0000 000000
2015-02-10 12:28:02,0.20,1.76,0.00,19.21,24.57,27.56,4.88,28.03,1025.91,2042.11,2766.45,2836.94,3071.62,349.56,355.05,11.00,0000 0000 0000 0000 000000
2015-02-10 12:33:03,0.21,1.76,0.00,19.20,24.57,27.59,4.95,28.13,1025.94,2042.16,2764.49,2835.45,3070.08,350.20,355.65,11.03,0000 0000 0000 0000 000000
2015-02-10 12:38:04,0.19,1.77,0.00,19.19,24.57,27.62,4.92,28.19,1025.90,2042.10,2762.49,2833.88,3068.44,349.87,355.25,11.06,0000 0000 0000 0000 000000
2015-02-10 12:43:06,0.18,1.78,0.00,19.35,24.57,27.65,4.96,28.28,1025.77,2042.04,2760.46,2832.35,3066.80,350.59,355.47,11.09,0000 0000 0000 0000 000000
2015-02-10 12:48:07,0.21,1.78,0.00,19.29,24.57,27.70,4.95,28.19,1025.42,2042.08,2758.57,2830.85,3065.18,350.08,355.17,11.12,0000 0000 0000 0000 000000
2015-02-10 12:53:08,0.19,1.79,0.00,19.29,24.57,27.75,4.93,28.17,1025.41,2042.08,2756.59,2829.42,3063.58,349.49,354.74,11.15,0000 0000 0000 0000 000000
2015-02-10 12:58:10,0.20,1.79,0.00,19.29,24.57,27.77,4.92,28.15,1025.43,2042.07,2754.59,2827.82,3061.87,350.21,355.25,11.18,0000 0000 0000 0000 000000
2015-02-10 13:03:11,0.20,1.80,0.00,19.35,24.58,27.71,4.93,28.25,1025.42,2042.12,2752.63,2826.39,3060.30,349.79,354.81,11.21,0000 0000 0000 0000 000000
2015-02-10 13:08:13,0.19,1.81,0.00,19.35,24.59,27.73,4.90,27.99,1025.42,2042.11,2750.78,2824.82,3058.68,350.07,355.18,11.23,0000 0000 0000 0000 000000